Location: *
(46.1200°N, 11.2700°E)
Time: 02:58:29
(UTC+00:00)

Cosmos 2322 - Pass Details

Date: 02 March 2021
Orbit: 842 x 853 km, 71.0° (Epoch: 20 April)

Event Time Altitude Azimuth Distance (km) Brightness Sun altitude
Rises 19:57:23 0° 220° (SW) 3,410 7.0 -30.4°
Reaches altitude 10° 19:59:53 10° 225° (SW) 2,478 6.3 -30.8°
Maximum altitude 20:05:27 53° 302° (WNW) 1,040 4.3 -31.7°
Drops below altitude 10° 20:11:03 10° 19° (NNE) 2,490 6.2 -32.5°
Sets 20:13:35 0° 24° (NNE) 3,429 6.9 -32.9°
